User: anonymous   Login
Location: Unspecified
(0.0000°N, 0.0000°E)
Time: 00:20:11
(UTC+02:00)
Language:

Delta 2 Rocket - Orbit

View from above orbital plane
View from above orbital plane
View from above satellite
View from above satellite

Ground track
Ground track

The orbit data is extracted from the following two-line orbital elements,

1 20453U 90008B   17290.15340575  .00001777  00000-0  10448-3 0  9992
2 20453  35.6240 233.5311 0286994 102.9766 260.3154 14.83637178466323
Epoch (UTC): 17 October 2017 03:40:54
Eccentricity: 0.0286994
inclination: 35.6240°
perigee height: 417 km
apogee height: 818 km
right ascension of ascending node: 233.5311°
argument of perigee: 102.9766°
revolutions per day: 14.83637178
mean anomaly at epoch: 260.3154°
orbit number at epoch: 46632

The dashed part of the orbit path shows where the satellite is in the earth's shadow,  

DLR